Greenwood, SC

2:07 PM EDT on April 25, 2017 (GMT -0400)
Greenwood County

Weather History for KGRD - December, 2012

Change the Weather History Date:

Friday, December 14, 2012

  Actual Average (KAND) Record (KAND)
Temperature  
Mean Temperature 42 °F -  
Max Temperature 57 °F 55 °F 76 °F (1948)
Min Temperature 28 °F 35 °F 15 °F (2010)
Degree Days  
Heating Degree Days 22    
Moisture  
Dew Point 29 °F    
Average Humidity 70    
Maximum Humidity 92    
Minimum Humidity 33    
Precipitation  
Precipitation 0.00 in - - ()
Sea Level Pressure  
Sea Level Pressure 30.33 in    
Wind  
Wind Speed 1 mph (North)    
Max Wind Speed 5 mph    
Max Gust Speed -    
Visibility 10 miles    
Events      
Averages and records for this station are not official NWS values.
T = Trace of Precipitation, MM = Missing Value Source: NWS Daily Summary

Daily Weather History Graph

Daily Weather History Graph

Search for Another Location

Airport or City:

Trip Planner

Search our weather history database for the weather conditions in past years. The results will help you decide how hot, cold, wet, or windy it might be!

Date:

Astronomy

Dec. 14, 2012 Rise Set
Actual Time 7:26 AM EST 5:20 PM EST
Civil Twilight 6:59 AM EST 5:48 PM EST
Nautical Twilight 6:27 AM EST 6:19 PM EST
Astronomical Twilight 5:57 AM EST 6:49 PM EST
Moon 8:32 AM EST (12/14) 7:08 PM EST (12/14)
Length of Visible Light 10h 48m
Length of Day
9h 53m
Waxing Crescent, 3% of the Moon is Illuminated
Dec 14
Waxing Crescent
Dec 20
First Quarter
Dec 28
Full
Jan 4
Last Quarter
Jan 11
New

Hourly Weather History & Observations

Time (EST) Temp. Windchill Dew Point Humidity Pressure Visibility Wind Dir Wind Speed Gust Speed Precip Events Conditions
12:56 AM 30.9 °F - 28.9 °F 92% 30.37 in 10.0 mi Calm Calm - N/A   Clear
1:56 AM 30.0 °F 26.5 °F 28.0 °F 92% 30.36 in 10.0 mi North 3.5 mph - N/A   Clear
2:56 AM 30.0 °F - 27.0 °F 88% 30.35 in 10.0 mi Calm Calm - N/A   Clear
3:56 AM 28.9 °F 25.2 °F 27.0 °F 92% 30.36 in 10.0 mi North 3.5 mph - N/A   Clear
4:56 AM 30.0 °F 26.5 °F 26.1 °F 85% 30.37 in 10.0 mi NNW 3.5 mph - N/A   Clear
6:56 AM 28.0 °F - 25.0 °F 88% 30.38 in 10.0 mi Calm Calm - N/A   Clear
7:56 AM 28.9 °F - 26.1 °F 89% 30.41 in 10.0 mi Calm Calm - N/A   Clear
8:56 AM 37.9 °F 35.5 °F 28.9 °F 70% 30.43 in 10.0 mi NNW 3.5 mph - N/A   Clear
9:56 AM 43.0 °F - 28.9 °F 58% 30.43 in 10.0 mi Calm Calm - N/A   Clear
10:56 AM 48.9 °F - 33.1 °F 54% 30.40 in 10.0 mi Variable 3.5 mph - N/A   Clear
11:56 AM 51.1 °F - 30.9 °F 46% 30.38 in 10.0 mi Calm Calm - N/A   Clear
1:56 PM 57.0 °F - 28.0 °F 33% 30.30 in 10.0 mi NNE 4.6 mph - N/A   Clear
2:56 PM 57.0 °F - 28.0 °F 33% 30.26 in 10.0 mi East 4.6 mph - N/A   Clear
3:56 PM 57.0 °F - 28.0 °F 33% 30.27 in 10.0 mi Calm Calm - N/A   Clear
4:56 PM 54.0 °F - 30.0 °F 40% 30.27 in 10.0 mi Calm Calm - N/A   Clear
5:56 PM 46.9 °F - 32.0 °F 56% 30.27 in 10.0 mi Calm Calm - N/A   Clear
6:56 PM 43.0 °F - 30.9 °F 62% 30.28 in 10.0 mi Calm Calm - N/A   Clear
7:56 PM 37.9 °F - 30.9 °F 76% 30.27 in 10.0 mi Calm Calm - N/A   Clear
8:56 PM 37.0 °F - 30.9 °F 79% 30.27 in 10.0 mi Calm Calm - N/A   Clear
9:56 PM 34.0 °F - 30.0 °F 85% 30.29 in 10.0 mi Calm Calm - N/A   Clear
10:56 PM 34.0 °F - 30.9 °F 89% 30.28 in 10.0 mi Calm Calm - N/A   Clear
11:56 PM 35.1 °F - 32.0 °F 89% 30.27 in 10.0 mi Calm Calm - N/A   Clear